Weather History for KLEE - March, 2013

Change the Weather History Date:

Monday, March 25, 2013

  Actual Average Record
Temperature  
Mean Temperature 63 °F -  
Max Temperature 72 °F 77 °F 88 °F (1975)
Min Temperature 55 °F 54 °F 34 °F (1968)
Degree Days  
Heating Degree Days 2    
Growing Degree Days 13 (Base 50)    
Moisture  
Dew Point 43 °F    
Average Humidity 53    
Maximum Humidity 90    
Minimum Humidity 19    
Precipitation  
Precipitation 0.00 in - - ()
Sea Level Pressure  
Sea Level Pressure 29.89 in    
Wind  
Wind Speed 11 mph (WNW)    
Max Wind Speed 15 mph    
Max Gust Speed 24 mph    
Visibility 10 miles    
Events      
Averages and records for this station are not official NWS values.
T = Trace of Precipitation, MM = Missing Value Source: NWS Daily Summary

Daily Weather History Graph

Daily Weather History Graph

Search for Another Location

Airport or City:

Trip Planner

Search our weather history database for the weather conditions in past years. The results will help you decide how hot, cold, wet, or windy it might be!

Date:

Astronomy

Mar. 25, 2013 Rise Set
Actual Time 7:24 AM EDT 7:41 PM EDT
Civil Twilight 7:01 AM EDT 8:05 PM EDT
Nautical Twilight 6:33 AM EDT 8:32 PM EDT
Astronomical Twilight 6:05 AM EDT 9:00 PM EDT
Moon 6:16 PM EDT (3/25) 6:00 AM EDT (3/25)
Length of Visible Light 13h 03m
Length of Day
12h 16m
Waxing Gibbous, 96% of the Moon is Illuminated
Mar 25
Waxing Gibbous
Mar 27
Full
Apr 3
Last Quarter
Apr 10
New
Apr 18
First Quarter

Hourly Weather History & Observations

Time (EDT) Temp. Dew Point Humidity Pressure Visibility Wind Dir Wind Speed Gust Speed Precip Events Conditions
12:53 AM 66.9 °F 64.0 °F 90% 29.74 in 7.0 mi WSW 10.4 mph 19.6 mph N/A   Clear
1:53 AM 66.9 °F 64.0 °F 90% 29.74 in 7.0 mi West 10.4 mph - N/A   Clear
2:53 AM 66.0 °F 63.0 °F 90% 29.75 in 8.0 mi West 10.4 mph 18.4 mph N/A   Clear
3:27 AM 66.2 °F 62.6 °F 88% 29.76 in 9.0 mi West 11.5 mph - N/A   Mostly Cloudy
3:53 AM 66.0 °F 62.1 °F 87% 29.75 in 10.0 mi West 11.5 mph - N/A   Overcast
4:53 AM 66.0 °F 61.0 °F 84% 29.77 in 10.0 mi WNW 10.4 mph 17.3 mph N/A   Overcast
5:53 AM 63.0 °F 59.0 °F 87% 29.79 in 10.0 mi NW 9.2 mph - N/A   Scattered Clouds
6:53 AM 61.0 °F 39.9 °F 46% 29.82 in 10.0 mi NW 11.5 mph - N/A   Clear
7:53 AM 57.9 °F 37.0 °F 46% 29.86 in 10.0 mi NW 12.7 mph - N/A   Clear
8:53 AM 57.9 °F 39.9 °F 51% 29.89 in 10.0 mi NW 10.4 mph - N/A   Clear
9:53 AM 59.0 °F 37.0 °F 44% 29.92 in 10.0 mi NNW 15.0 mph 19.6 mph N/A   Clear
10:53 AM 61.0 °F 37.0 °F 41% 29.95 in 10.0 mi NW 10.4 mph - N/A   Clear
11:53 AM 62.1 °F 34.0 °F 35% 29.96 in 10.0 mi WNW 11.5 mph - N/A   Clear
12:53 PM 66.9 °F 28.9 °F 24% 29.94 in 10.0 mi NW 12.7 mph 21.9 mph N/A   Clear
1:53 PM 68.0 °F 28.9 °F 23% 29.93 in 10.0 mi WNW 13.8 mph 24.2 mph N/A   Clear
2:53 PM 69.1 °F 28.0 °F 22% 29.91 in 10.0 mi WNW 12.7 mph - N/A   Clear
3:53 PM 70.0 °F 26.1 °F 19% 29.90 in 10.0 mi WNW 12.7 mph 21.9 mph N/A   Clear
4:53 PM 71.1 °F 28.0 °F 20% 29.89 in 10.0 mi WNW 11.5 mph 20.7 mph N/A   Clear
5:53 PM 68.0 °F 41.0 °F 37% 29.89 in 10.0 mi WNW 10.4 mph - N/A   Clear
6:53 PM 64.9 °F 41.0 °F 42% 29.93 in 10.0 mi West 12.7 mph - N/A   Clear
7:53 PM 60.1 °F 39.9 °F 47% 29.96 in 10.0 mi West 13.8 mph 21.9 mph N/A   Clear
8:53 PM 57.9 °F 39.0 °F 49% 29.99 in 10.0 mi WNW 11.5 mph 19.6 mph N/A   Clear
9:53 PM 57.0 °F 37.9 °F 49% 30.02 in 10.0 mi WNW 12.7 mph 19.6 mph N/A   Clear
10:53 PM 55.0 °F 37.9 °F 53% 30.05 in 10.0 mi WNW 6.9 mph - N/A   Clear
11:53 PM 55.9 °F 37.9 °F 51% 30.06 in 10.0 mi NW 10.4 mph - N/A   Clear